Retour au catalogue

THORAD AGENA D DEB

ActifLEO
NORAD 4968·DEBRIS·🇺🇸 United States

Lancé Apr 8, 1970 depuis Vandenberg Space Force Base

Loading…

Prochains Passages (prochaines 24 heures)

TLE

FraisSource: Space-Track

Époque: Sep 14, 2026, 12:09 UTC

1 04968U 70025GN  26257.50643986  .00000123  00000-0  22024-3 0  9993
2 04968 100.1798 271.8011 0019976 158.1302 356.7266 13.62761322796579

Suivez THORAD AGENA D DEB en temps réel avec AllMySat

Download on the App Store